Location: *
(51.1248°S, 108.4023°W)
Time: 05:51:22
(UTC+00:00)

Envisat - Pass Details

Date: 03 October 2021
Orbit: 764 x 766 km, 98.2° (Epoch: 25 October)

Event Time Altitude Azimuth Distance (km) Brightness Sun altitude
Rises 09:29:41 0° 71° (ENE) 3,248 6.5 -26.5°
Reaches altitude 10° 09:32:53 10° 92° (E) 2,330 6.0 -26.1°
Maximum altitude 09:35:49 16° 127° (SE) 1,976 6.0 -25.8°
Drops below altitude 10° 09:38:45 10° 162° (SSE) 2,344 6.3 -25.5°
Sets 09:41:58 0° 183° (S) 3,279 6.9 -25.1°
